Regional Weather Roundup
Issued by NWS Green Bay, WI

Home | Current Version | Previous Version | Text Only | Print | Product List | Glossary On
Versions: 1 2 3 4 5 6 7 8 9 10 11 12 13 14 15 16 17 18 19 20 21 22 23 24 25 26 27 28 29 30 31 32 33 34 35 36 37 38 39 40 41 42 43 44 45 46 47 48 49 50
762
ASUS43 KGRB 210411
RWRGRB

NORTH-CENTRAL AND NORTHEAST WISCONSIN REGIONAL WEATHER ROUNDUP
NATIONAL WEATHER SERVICE GREEN BAY WI
1100 PM CDT FRI OCT 20 2017

WIZ005-009-010>012-018-019-210500-
NORTH CENTRAL WISCONSIN

CITY           SKY/WX    TMP DP  RH WIND       PRES   REMARKS
IRONWOOD       CLOUDY    66  43  43 S14G25    29.81R
MANITOWISH WTR MOCLDY    60  43  53 S6        29.86S
ARBOR VITAE    PTCLDY    63  45  50 S15G23    29.88S
EAGLE RIVER    PTCLDY    61  41  47 S7        29.89S
LAND O LAKES   PTCLDY    62  42  47 S7        29.90S
RHINELANDER    PTCLDY    63  45  51 S15G22    29.90S
PHILLIPS       PTCLDY    62  46  55 S13       29.85S
ANTIGO         CLOUDY    56  44  66 S9        29.94R
TOMAHAWK       PTCLDY    59  44  56 S3        29.90R
MERRILL        PTCLDY    64  46  52 S9G16     29.91R
$$

WIZ013-073-210500-
NORTHEAST WISCONSIN

CITY           SKY/WX    TMP DP  RH WIND       PRES   REMARKS
IRON MOUNTAIN  PTCLDY    60  45  57 S6        29.92R
MARINETTE      CLOUDY    62  51  67 SW10      29.95S
OCONTO         PTCLDY    60  51  70 S6        29.94S
$$

WIZ017-030-035>037-045-210500-
CENTRAL WISCONSIN

CITY           SKY/WX    TMP DP  RH WIND       PRES   REMARKS
MEDFORD        CLOUDY    59  45  59 S10G16    29.88R
WAUSAU         MOCLDY    63  45  51 S13G24    29.89S
MOSINEE        MOCLDY    61  45  55 S12       29.92S
MARSHFIELD     PTCLDY    60  44  55 S10       29.89R
WISC RAPIDS    PTCLDY    65  47  52 S10       29.92R
STEVENS POINT  CLOUDY    62  46  54 S12       29.93R
WAUPACA        MOCLDY    62  49  60 SE3       29.94S
SHAWANO        CLOUDY    64  48  56 S5        29.94R
CLINTONVILLE   CLOUDY    63  46  55 S7        29.94S
WAUTOMA        MOCLDY    63  49  60 S8        29.94S
$$

WIZ038-039-048-051-210500-
FOX VALLEY

CITY           SKY/WX    TMP DP  RH WIND       PRES   REMARKS
NWS GREEN BAY  PTCLDY    61  51  70 S8        29.96S
APPLETON       PTCLDY    63  46  55 S9        29.95R
OSHKOSH        CLOUDY    65  50  58 S17       29.95S
FOND DU LAC    CLOUDY    67  46  47 S12G20    29.97S
$$

WIZ022-050-052-210500-
EAST CENTRAL WISCONSIN

CITY           SKY/WX    TMP DP  RH WIND       PRES   REMARKS
EPHRAIM        FAIR      60  51  71 S9        29.96R
WASHINGTON ISL FAIR      56  53  89 S9G16     29.96R
STURGEON BAY   CLOUDY    60  51  72 S12       29.97R
MANITOWOC      CLOUDY    56  51  84 S6        29.99S
SHEBOYGAN      CLOUDY    57  52  83 S10       29.99S
$$

LMZ563-521-522-541>543-210500-
LAKESHORE

STATION/POSITION TIME  TEMP    WIND        PRES    VSBY  WAVE
                       AIR SEA DIR/SP/G                  HT/PER
                 (UTC) (F)     (DEG/KT/KT) (MB)    (MI)  (FT/S)
SHEBOYGAN LKSHOR 0400   58     180/ 19/ 20 1015.4R
KEWAUNEE LKSHORE 0348   55     180/  9/ 11 1014.3R
NORTHPORT PIER   0340   61     160/  7/ 14 1014.2S
N MID LAKE BUOY  0350   63 58  180/ 17/ 19 1015.2F         5/ 6
S GREEN BAY BUOY 0400   63 58  180/ 14/ 16 1014.0
MENOMINEE LKSHOR 0348   60     180/  6/  8 1013.9R
$$




USA.gov is the U.S. government's official web portal to all federal, state and local government web resources and services.